Location: Austin
(30.3000°N, 97.7500°W)
Time: 04:41:57
(UTC-05:00)

Cosmos 1727 Rocket - Pass Details

Date: 18 March 2023
Orbit: 960 x 997 km, 82.9° (Epoch: 01 April)

Event Time Altitude Azimuth Distance (km) Brightness Sun altitude
Rises 20:14:17 0° 170° (S) 3,700 6.9 -8.0°
Reaches altitude 10° 20:16:52 10° 166° (SSE) 2,752 6.2 -8.5°
Maximum altitude 20:22:58 52° 91° (E) 1,210 4.2 -9.8°
Drops below altitude 10° 20:29:03 10° 17° (NNE) 2,749 6.3 -11.2°
Sets 20:31:37 0° 13° (NNE) 3,696 7.0 -11.7°
